User: anonymous   Login
Location: Unspecified
(0.0000°N, 0.0000°E)
Time: 12:52:08
(UTC+02:00)
Language:

Cosmos 1782 Rocket - Orbit

View from above orbital plane
View from above orbital plane
View from above satellite
View from above satellite

Ground track
Ground track

The orbit data is extracted from the following two-line orbital elements,

1 16987U 86074B   15245.42529735  .00000168  00000-0  17795-4 0  9998
2 16987  82.5168 202.6063 0016760 252.8020 226.4083 14.82789914561584
Epoch (UTC): 02 September 2015 10:12:25
Eccentricity: 0.0016760
inclination: 82.5168°
perigee height: 609 km
apogee height: 632 km
right ascension of ascending node: 202.6063°
argument of perigee: 252.8020°
revolutions per day: 14.82789914
mean anomaly at epoch: 226.4083°
orbit number at epoch: 56158

The dashed part of the orbit path shows where the satellite is in the earth's shadow,  

DLR